"Pseudo-MPEC" for P20PD6w

Created 2019 Jul 19 19:07:04 UT using Find_Orb

Click here for an explanation of pseudo-MPECs

 
 Astrometry: 
     P20PD6w  C2019 07 06IVgv;.%=SUj=^h*2+Q@Astrometryoredacted;q!a7clickJJHaF52
     P20PD6w  C2019 07 06qT1(u-C)f:\Fp=.IGtTR:I$oe;?5c-qkilR2uL2v8[^ahere(Xp5F52
     P20PD6w  C2019 07 06Ls9A^.:tru[ifJ6s6for1kw0m6kQQNd!=6uexplanation02YL-6F52

Station data:
(F52) Pan-STARRS 2, Haleakala  (N20.707384 W156.255910)  US/Hawaii. 1.8-m
   Ritchey-Chrétien + CCD.

Orbital elements:  P20PD6w
   Perihelion 2019 Jul 10.855224 +/- 35.1 TT = 20:31:31 (JD 2458675.355224)
Epoch 2019 Jul  6.0 TT = JDT 2458670.5   Earth MOID: 0.2541   Ma: 0.0202
M 358.83558008 +/- 28               (J2000 ecliptic)          AutoNEOCP
n   0.23982823 +/- 0.302            Peri.   57.98559 +/- 100
a   2.56568008 +/- 2.12             Node   235.82283 +/- 58
e   0.5136108 +/- 0.248             Incl.    6.47821 +/- 11
P   4.11                   H 22.9   G  0.15   U 11.9  SR
q 1.24791895 +/- 0.355    Q 3.88344120 +/- 42.8
From 3 observations 2019 July 6 (50.7 min); mean residual 0".11
Residuals in arcseconds: 
190706 F52  .05-  .05-    190706 F52  .16+  .15+    190706 F52  .11-  .10-    

Ephemerides (geocentric):
Date (UTC) HH   RA              Dec         delta   r     elong  mag " sig PA
---- -- -- --  -------------   -----------  ------ ------ -----  --- ---- ---
2019 07 19 19  21 01 37.273   +11 46 25.75  .27946 1.2518 143.4 21.9  74d   4
2019 07 19 20  21 01 40.880   +11 47 09.32  .27948 1.2518 143.4 21.9  74d   4
2019 07 19 21  21 01 44.484   +11 47 52.79  .27951 1.2519 143.5 21.9  74d   4
2019 07 19 22  21 01 48.084   +11 48 36.16  .27953 1.2519 143.5 21.9  74d   4
2019 07 19 23  21 01 51.680   +11 49 19.43  .27956 1.2520 143.5 21.9  74d   4
2019 07 20 00  21 01 55.273   +11 50 02.60  .27958 1.2520 143.5 21.9  74d   4
2019 07 20 01  21 01 58.863   +11 50 45.67  .27960 1.2520 143.5 21.9  74d   4
2019 07 20 02  21 02 02.449   +11 51 28.63  .27963 1.2521 143.5 21.9  74d   4
2019 07 20 03  21 02 06.032   +11 52 11.50  .27965 1.2521 143.5 21.9  74d   4
2019 07 20 04  21 02 09.611   +11 52 54.27  .27968 1.2521 143.5 21.9  74d   4
2019 07 20 05  21 02 13.186   +11 53 36.94  .27970 1.2522 143.5 21.9  74d   4
2019 07 20 06  21 02 16.759   +11 54 19.51  .27973 1.2522 143.5 21.9  74d   4
2019 07 20 07  21 02 20.327   +11 55 01.98  .27975 1.2523 143.5 21.9  74d   4
2019 07 20 08  21 02 23.893   +11 55 44.34  .27978 1.2523 143.5 21.9  74d   4
2019 07 20 09  21 02 27.454   +11 56 26.61  .27980 1.2523 143.5 21.9  74d   4
2019 07 20 10  21 02 31.013   +11 57 08.78  .27983 1.2524 143.6 21.9  74d   4
2019 07 20 11  21 02 34.568   +11 57 50.84  .27985 1.2524 143.6 21.9  74d   4
2019 07 20 12  21 02 38.119   +11 58 32.81  .27988 1.2524 143.6 21.9  74d   4
2019 07 20 13  21 02 41.667   +11 59 14.67  .27991 1.2525 143.6 21.9  74d   4
2019 07 20 14  21 02 45.211   +11 59 56.44  .27993 1.2525 143.6 21.9  74d   4
2019 07 20 15  21 02 48.752   +12 00 38.10  .27996 1.2526 143.6 21.9  74d   4
2019 07 20 16  21 02 52.290   +12 01 19.66  .27999 1.2526 143.6 21.9  74d   4
2019 07 20 17  21 02 55.824   +12 02 01.12  .28001 1.2526 143.6 21.9  74d   4
2019 07 20 18  21 02 59.355   +12 02 42.48  .28004 1.2527 143.6 21.9  74d   4
2019 07 20 19  21 03 02.882   +12 03 23.74  .28007 1.2527 143.6 21.9  74d   4
2019 07 20 20  21 03 06.405   +12 04 04.90  .28009 1.2528 143.6 21.9  74d   4
2019 07 20 21  21 03 09.925   +12 04 45.96  .28012 1.2528 143.6 21.9  74d   4
2019 07 20 22  21 03 13.442   +12 05 26.91  .28015 1.2528 143.7 21.9  74d   4
2019 07 20 23  21 03 16.955   +12 06 07.77  .28017 1.2529 143.7 21.9  74d   4
2019 07 21 00  21 03 20.465   +12 06 48.52  .28020 1.2529 143.7 21.9  74d   4
2019 07 21 01  21 03 23.971   +12 07 29.18  .28023 1.2530 143.7 21.9  74d   4
2019 07 21 02  21 03 27.474   +12 08 09.73  .28026 1.2530 143.7 21.9  74d   4
2019 07 21 03  21 03 30.973   +12 08 50.18  .28028 1.2530 143.7 21.9  74d   4
2019 07 21 04  21 03 34.469   +12 09 30.53  .28031 1.2531 143.7 21.9  74d   4
2019 07 21 05  21 03 37.962   +12 10 10.78  .28034 1.2531 143.7 21.9  74d   4
2019 07 21 06  21 03 41.451   +12 10 50.92  .28037 1.2532 143.7 21.9  74d   4
2019 07 21 07  21 03 44.936   +12 11 30.97  .28040 1.2532 143.7 21.9  74d   4
2019 07 21 08  21 03 48.418   +12 12 10.91  .28043 1.2533 143.7 21.9  74d   4
2019 07 21 09  21 03 51.897   +12 12 50.75  .28045 1.2533 143.7 21.9  74d   4
2019 07 21 10  21 03 55.372   +12 13 30.50  .28048 1.2533 143.8 21.9  74d   4
2019 07 21 11  21 03 58.843   +12 14 10.13  .28051 1.2534 143.8 21.9  74d   4
2019 07 21 12  21 04 02.311   +12 14 49.67  .28054 1.2534 143.8 21.9  74d   4
2019 07 21 13  21 04 05.776   +12 15 29.11  .28057 1.2535 143.8 21.9  74d   4
2019 07 21 14  21 04 09.237   +12 16 08.44  .28060 1.2535 143.8 21.9  74d   4
2019 07 21 15  21 04 12.695   +12 16 47.68  .28063 1.2536 143.8 21.9  74d   4
2019 07 21 16  21 04 16.149   +12 17 26.81  .28066 1.2536 143.8 21.9  74d   4
2019 07 21 17  21 04 19.600   +12 18 05.84  .28069 1.2536 143.8 21.9  74d   4
2019 07 21 18  21 04 23.047   +12 18 44.77  .28072 1.2537 143.8 21.9  74d   4